2017-008Q

Last updated on Tue Feb 28 2017 00:15:03 GMT+0000 (Coordinated Universal Time)

1 41962U 17008Q 17058.70148609 .00003541 00000-0 16090-3 0 9996 2 41962 97.5090 120.3015 0008373 209.4759 150.5960 15.21393001 1678
UTC large
Height (km)
Speed (km/s)
/
Latitude / Longitude
Inclination (degrees)
Orbital Period (minutes)
Azimuth
Elevation
Range (km)
Doppler Factor

Next 0 passes for location: London (51.5072 / 0.1276)

Sorry there are no passes over London.